{"data":{"norad_id":81893,"intl_designator":"","name":"UNKNOWN","alt_names":[],"object_type":"UNKNOWN","status":"UNKNOWN","operator":null,"country":null,"launch_date":null,"launch_site_code":null,"launch_vehicle":null,"mission":null,"orbit_class":"UNKNOWN","rcs_meters":null,"size_class":null,"mass_kg":null,"dimensions":null,"purposes":[],"wikipedia_slug":null,"has_3d_model":false,"image_url":null,"decayed_at":null,"tle_current":{"epoch":"2026-09-18T05:46:21.536256Z","epoch_age_seconds":209745,"freshness":"STALE","line1":"1 81893U          26261.24052704  .00000648  00000+0  70281-3 0  9998","line2":"2 81893 100.0643 265.4115 0020209 272.9338  86.9497 13.77240007642541","mean_motion":13.77240007,"eccentricity":0.0020209,"inclination_deg":100.0643,"raan_deg":265.4115,"arg_perigee_deg":272.9338,"mean_anomaly_deg":86.9497,"bstar":0.00070281,"rev_number":64254,"period_min":104.55693943547,"perigee_km":958.83510060126,"apogee_km":988.54972472135,"semimajor_km":7351.8294126613,"source":"CELESTRAK","updated_at":"2026-09-20T09:00:32.397514Z"}}}